User: anonymous
Location: State Camp
(41.2367°N, 77.7828°W)
Time: 02:22:15
(UTC-04:00)
Language:

ADEOS Rocket - Orbit

View from above orbital plane
View from above orbital plane
View from above satellite
View from above satellite

Ground track
Ground track

The orbit data is extracted from the following two-line orbital elements,

1 24279U 96046C   14293.15234480  .00000075  00000-0  14253-3 0  7454
2 24279 098.7323 345.1545 0299528 246.2251 172.2751 13.46995708893515
Epoch (UTC): 20 October 2014 03:39:22
Eccentricity: 0.0299528
inclination: 98.7323°
perigee height: 860 km
apogee height: 1307 km
right ascension of ascending node: 345.1545°
argument of perigee: 246.2251°
revolutions per day: 13.46995708
mean anomaly at epoch: 172.2751°
orbit number at epoch: 89351

The dashed part of the orbit path shows where the satellite is in the earth's shadow,  

DLR